| time (UTC) | temp F | wind direction | speed MPH | gust MPH | rain 1hr in | rain 24hr in | rain mn in | humidity % | barometer mb |
| 20260831225506 | 90 | 227 | 0.0 | 0.0 | 0.00 | 0.00 | 0.00 | 58 | 1018.3 |
| 20260831225006 | 91 | 227 | 0.0 | 0.0 | 0.00 | 0.00 | 0.00 | 57 | 1018.1 |
| 20260831224501 | 91 | 227 | 0.0 | 0.0 | 0.00 | 0.00 | 0.00 | 56 | 1018.2 |
| 20260831223956 | 91 | 227 | 0.0 | 0.0 | 0.00 | 0.00 | 0.00 | 54 | 1018.4 |
| 20260831223452 | 91 | 227 | 0.0 | 0.0 | 0.00 | 0.00 | 0.00 | 54 | 1018.4 |
| 20260831222948 | 91 | 227 | 0.0 | 0.0 | 0.00 | 0.00 | 0.00 | 54 | 1018.3 |
| 20260831222443 | 91 | 227 | 0.0 | 0.0 | 0.00 | 0.00 | 0.00 | 55 | 1018.2 |
| 20260831221938 | 92 | 227 | 0.0 | 0.0 | 0.00 | 0.00 | 0.00 | 53 | 1018.2 |
| 20260831221434 | 92 | 222 | 0.0 | 0.0 | 0.00 | 0.00 | 0.00 | 53 | 1018.0 |
| 20260831220929 | 92 | 224 | 0.0 | 0.0 | 0.00 | 0.00 | 0.00 | 54 | 1017.8 |
| 20260831220424 | 92 | 224 | 0.0 | 0.0 | 0.00 | 0.00 | 0.00 | 54 | 1018.4 |
| 20260831215919 | 92 | 226 | 0.0 | 0.0 | 0.00 | 0.00 | 0.00 | 54 | 1018.1 |
| 20260831215415 | 92 | 219 | 0.0 | 0.0 | 0.00 | 0.00 | 0.00 | 51 | 1018.2 |
| 20260831214911 | 92 | 219 | 0.0 | 0.0 | 0.00 | 0.00 | 0.00 | 50 | 1018.4 |
| 20260831214408 | 93 | 219 | 0.0 | 0.0 | 0.00 | 0.00 | 0.00 | 51 | 1018.2 |
| 20260831213904 | 93 | 224 | 0.0 | 0.0 | 0.00 | 0.00 | 0.00 | 49 | 1018.5 |
| 20260831213400 | 93 | 218 | 0.0 | 1.0 | 0.00 | 0.00 | 0.00 | 49 | 1018.5 |
| 20260831212855 | 92 | 233 | 1.0 | 2.0 | 0.00 | 0.00 | 0.00 | 51 | 1018.5 |
| 20260831212352 | 92 | 224 | 0.0 | 0.0 | 0.00 | 0.00 | 0.00 | 51 | 1018.4 |
| 20260831211850 | 92 | 225 | 1.0 | 1.0 | 0.00 | 0.00 | 0.00 | 51 | 1018.7 |
| 20260831211345 | 92 | 224 | 1.0 | 1.0 | 0.00 | 0.00 | 0.00 | 50 | 1018.7 |
| 20260831210844 | 93 | 227 | 0.0 | 1.0 | 0.00 | 0.00 | 0.00 | 50 | 1018.8 |
| 20260831210340 | 93 | 227 | 0.0 | 0.0 | 0.00 | 0.00 | 0.00 | 50 | 1018.8 |
| 20260831205835 | 93 | 221 | 0.0 | 1.0 | 0.00 | 0.00 | 0.00 | 51 | 1018.7 |
| 20260831205331 | 92 | 227 | 0.0 | 0.0 | 0.00 | 0.00 | 0.00 | 52 | 1018.6 |
| 20260831204826 | 93 | 240 | 0.0 | 0.0 | 0.00 | 0.00 | 0.00 | 51 | 1018.6 |
| 20260831204325 | 93 | 227 | 0.0 | 1.0 | 0.00 | 0.00 | 0.00 | 51 | 1018.7 |
| 20260831203824 | 93 | 229 | 1.0 | 1.0 | 0.00 | 0.00 | 0.00 | 51 | 1018.8 |
| 20260831203318 | 93 | 235 | 1.0 | 1.0 | 0.00 | 0.00 | 0.00 | 51 | 1018.7 |
| 20260831202816 | 93 | 221 | 0.0 | 1.0 | 0.00 | 0.00 | 0.00 | 50 | 1018.9 |
| 20260831202307 | 93 | 230 | 1.0 | 2.0 | 0.00 | 0.00 | 0.00 | 51 | 1018.8 |
| 20260831201806 | 94 | 248 | 1.0 | 1.0 | 0.00 | 0.00 | 0.00 | 49 | 1019.0 |
| 20260831201305 | 94 | 226 | 0.0 | 0.0 | 0.00 | 0.00 | 0.00 | 49 | 1019.2 |
| 20260831200801 | 94 | 209 | 0.0 | 1.0 | 0.00 | 0.00 | 0.00 | 48 | 1019.1 |
| 20260831200256 | 94 | 217 | 0.0 | 0.0 | 0.00 | 0.00 | 0.00 | 50 | 1019.3 |
| 20260831195751 | 93 | 226 | 0.0 | 0.0 | 0.00 | 0.00 | 0.00 | 50 | 1019.3 |
| 20260831195247 | 93 | 228 | 0.0 | 1.0 | 0.00 | 0.00 | 0.00 | 50 | 1019.2 |
| 20260831194742 | 94 | 233 | 1.0 | 2.0 | 0.00 | 0.00 | 0.00 | 50 | 1019.2 |
| 20260831194238 | 94 | 233 | 0.0 | 0.0 | 0.00 | 0.00 | 0.00 | 48 | 1019.5 |
| 20260831193731 | 93 | 222 | 1.0 | 2.0 | 0.00 | 0.00 | 0.00 | 48 | 1019.5 |
| 20260831193227 | 93 | 216 | 0.0 | 1.0 | 0.00 | 0.00 | 0.00 | 51 | 1019.8 |
| 20260831192722 | 94 | 230 | 0.0 | 1.0 | 0.00 | 0.00 | 0.00 | 50 | 1019.6 |
| 20260831192217 | 93 | 223 | 1.0 | 2.0 | 0.00 | 0.00 | 0.00 | 50 | 1019.5 |
| 20260831191713 | 93 | 218 | 0.0 | 0.0 | 0.00 | 0.00 | 0.00 | 52 | 1019.7 |
| 20260831191209 | 94 | 239 | 0.0 | 0.0 | 0.00 | 0.00 | 0.00 | 51 | 1019.9 |
| 20260831190703 | 93 | 228 | 0.0 | 1.0 | 0.00 | 0.00 | 0.00 | 51 | 1019.9 |
| 20260831190203 | 92 | 231 | 1.0 | 1.0 | 0.00 | 0.00 | 0.00 | 52 | 1019.9 |
| 20260831185659 | 92 | 240 | 1.0 | 2.0 | 0.00 | 0.00 | 0.00 | 54 | 1019.9 |
| 20260831185154 | 92 | 223 | 0.0 | 1.0 | 0.00 | 0.00 | 0.00 | 55 | 1019.9 |
| 20260831184653 | 93 | 231 | 1.0 | 1.0 | 0.00 | 0.00 | 0.00 | 54 | 1020.2 |
| 20260831184149 | 93 | 236 | 1.0 | 2.0 | 0.00 | 0.00 | 0.00 | 54 | 1020.1 |
| 20260831183648 | 94 | 235 | 1.0 | 1.0 | 0.00 | 0.00 | 0.00 | 53 | 1020.2 |
| 20260831183148 | 94 | 229 | 0.0 | 1.0 | 0.00 | 0.00 | 0.00 | 54 | 1020.1 |
| 20260831182647 | 94 | 225 | 0.0 | 1.0 | 0.00 | 0.00 | 0.00 | 53 | 1020.4 |
| 20260831182143 | 93 | 216 | 1.0 | 1.0 | 0.00 | 0.00 | 0.00 | 55 | 1020.1 |
| 20260831181638 | 92 | 212 | 1.0 | 2.0 | 0.00 | 0.00 | 0.00 | 55 | 1020.3 |
| 20260831181137 | 90 | 218 | 1.0 | 1.0 | 0.00 | 0.00 | 0.00 | 59 | 1020.3 |
| 20260831180633 | 89 | 219 | 0.0 | 0.0 | 0.00 | 0.00 | 0.00 | 61 | 1020.5 |
| 20260831180127 | 91 | 183 | 2.0 | 2.0 | 0.00 | 0.00 | 0.00 | 60 | 1020.8 |
| 20260831175622 | 92 | 237 | 0.0 | 1.0 | 0.00 | 0.00 | 0.00 | 57 | 1020.7 |
| 20260831175120 | 91 | 218 | 0.0 | 0.0 | 0.00 | 0.00 | 0.00 | 59 | 1020.7 |
| 20260831174619 | 91 | 199 | 1.0 | 1.0 | 0.00 | 0.00 | 0.00 | 59 | 1020.6 |
| 20260831174114 | 91 | 216 | 0.0 | 0.0 | 0.00 | 0.00 | 0.00 | 61 | 1020.8 |
| 20260831173613 | 92 | 227 | 0.0 | 1.0 | 0.00 | 0.00 | 0.00 | 59 | 1020.7 |
| 20260831173109 | 92 | 213 | 1.0 | 2.0 | 0.00 | 0.00 | 0.00 | 59 | 1020.6 |
| 20260831172608 | 90 | 259 | 2.0 | 2.0 | 0.00 | 0.00 | 0.00 | 60 | 1020.9 |
| 20260831172103 | 90 | 235 | 0.0 | 1.0 | 0.00 | 0.00 | 0.00 | 61 | 1020.7 |
| 20260831171559 | 90 | 228 | 0.0 | 2.0 | 0.00 | 0.00 | 0.00 | 62 | 1021.0 |
| 20260831171056 | 89 | 243 | 1.0 | 1.0 | 0.00 | 0.00 | 0.00 | 62 | 1020.9 |
| 20260831170551 | 89 | 235 | 1.0 | 1.0 | 0.00 | 0.00 | 0.00 | 62 | 1020.9 |
| 20260831170049 | 91 | 233 | 0.0 | 0.0 | 0.00 | 0.00 | 0.00 | 60 | 1020.9 |
| 20260831165549 | 91 | 226 | 0.0 | 0.0 | 0.00 | 0.00 | 0.00 | 59 | 1021.1 |
| 20260831165046 | 91 | 221 | 0.0 | 0.0 | 0.00 | 0.00 | 0.00 | 59 | 1021.1 |
| 20260831164542 | 90 | 219 | 1.0 | 2.0 | 0.00 | 0.00 | 0.00 | 59 | 1021.2 |
| 20260831164037 | 90 | 223 | 0.0 | 1.0 | 0.00 | 0.00 | 0.00 | 60 | 1021.2 |
| 20260831163531 | 90 | 233 | 1.0 | 1.0 | 0.00 | 0.00 | 0.00 | 60 | 1021.4 |
| 20260831163027 | 89 | 222 | 0.0 | 2.0 | 0.00 | 0.00 | 0.00 | 61 | 1021.4 |
| 20260831162526 | 89 | 291 | 0.0 | 2.0 | 0.00 | 0.00 | 0.00 | 61 | 1021.5 |
| 20260831162024 | 89 | 216 | 0.0 | 2.0 | 0.00 | 0.00 | 0.00 | 62 | 1021.4 |
| 20260831161521 | 89 | 210 | 2.0 | 2.0 | 0.00 | 0.00 | 0.00 | 63 | 1021.5 |
| 20260831161016 | 89 | 226 | 1.0 | 1.0 | 0.00 | 0.00 | 0.00 | 65 | 1021.4 |
| 20260831160516 | 87 | 209 | 1.0 | 3.0 | 0.00 | 0.00 | 0.00 | 66 | 1021.7 |
| 20260831160011 | 87 | 238 | 1.0 | 2.0 | 0.00 | 0.00 | 0.00 | 66 | 1021.7 |
| 20260831155506 | 87 | 247 | 1.0 | 2.0 | 0.00 | 0.00 | 0.00 | 66 | 1021.7 |
| 20260831155001 | 87 | 299 | 1.0 | 2.0 | 0.00 | 0.00 | 0.00 | 68 | 1021.8 |
| 20260831154458 | 87 | 199 | 2.0 | 2.0 | 0.00 | 0.00 | 0.00 | 68 | 1021.7 |
| 20260831153956 | 87 | 217 | 1.0 | 2.0 | 0.00 | 0.00 | 0.00 | 69 | 1021.7 |
| 20260831153452 | 87 | 235 | 1.0 | 1.0 | 0.00 | 0.00 | 0.00 | 69 | 1021.5 |
| 20260831152949 | 87 | 218 | 0.0 | 0.0 | 0.00 | 0.00 | 0.00 | 69 | 1021.8 |
| 20260831152443 | 86 | 213 | 0.0 | 2.0 | 0.00 | 0.00 | 0.00 | 70 | 1021.6 |
| 20260831151938 | 86 | 221 | 0.0 | 0.0 | 0.00 | 0.00 | 0.00 | 72 | 1021.5 |
| 20260831151437 | 86 | 195 | 3.0 | 5.0 | 0.00 | 0.00 | 0.00 | 73 | 1021.7 |
| 20260831150933 | 85 | 206 | 0.0 | 0.0 | 0.00 | 0.00 | 0.00 | 73 | 1021.6 |
| 20260831150429 | 85 | 216 | 0.0 | 2.0 | 0.00 | 0.00 | 0.00 | 73 | 1021.8 |
| 20260831145928 | 85 | 221 | 0.0 | 1.0 | 0.00 | 0.00 | 0.00 | 74 | 1021.9 |
| 20260831145424 | 84 | 219 | 1.0 | 3.0 | 0.00 | 0.00 | 0.00 | 75 | 1021.9 |
| 20260831144920 | 84 | 214 | 0.0 | 1.0 | 0.00 | 0.00 | 0.00 | 76 | 1022.0 |
| 20260831144415 | 83 | 217 | 0.0 | 0.0 | 0.00 | 0.00 | 0.00 | 77 | 1021.9 |
| 20260831143910 | 83 | 218 | 0.0 | 0.0 | 0.00 | 0.00 | 0.00 | 77 | 1021.7 |
| 20260831143405 | 83 | 219 | 0.0 | 1.0 | 0.00 | 0.00 | 0.00 | 79 | 1021.8 |
| 20260831142901 | 82 | 226 | 0.0 | 0.0 | 0.00 | 0.00 | 0.00 | 79 | 1022.0 |
| 20260831142356 | 83 | 221 | 0.0 | 0.0 | 0.00 | 0.00 | 0.00 | 78 | 1021.8 |
| 20260831141850 | 83 | 220 | 0.0 | 0.0 | 0.00 | 0.00 | 0.00 | 78 | 1021.8 |
| 20260831141344 | 83 | 208 | 0.0 | 0.0 | 0.00 | 0.00 | 0.00 | 77 | 1021.7 |
| 20260831140839 | 83 | 214 | 0.0 | 0.0 | 0.00 | 0.00 | 0.00 | 78 | 1021.9 |
| 20260831140334 | 82 | 225 | 0.0 | 0.0 | 0.00 | 0.00 | 0.00 | 79 | 1021.6 |
| 20260831135832 | 81 | 222 | 0.0 | 0.0 | 0.00 | 0.00 | 0.00 | 81 | 1021.7 |
| 20260831135327 | 81 | 234 | 0.0 | 0.0 | 0.00 | 0.00 | 0.00 | 83 | 1021.8 |
| 20260831134823 | 80 | 226 | 0.0 | 0.0 | 0.00 | 0.00 | 0.00 | 85 | 1021.7 |
| 20260831134320 | 80 | 229 | 0.0 | 0.0 | 0.00 | 0.00 | 0.00 | 86 | 1021.6 |
| 20260831133819 | 78 | 221 | 0.0 | 0.0 | 0.00 | 0.00 | 0.00 | 89 | 1021.7 |
| 20260831133318 | 77 | 224 | 0.0 | 0.0 | 0.00 | 0.00 | 0.00 | 92 | 1021.9 |
| 20260831132814 | 76 | 226 | 0.0 | 0.0 | 0.00 | 0.00 | 0.00 | 92 | 1021.5 |
| 20260831132308 | 75 | 225 | 0.0 | 0.0 | 0.00 | 0.00 | 0.00 | 93 | 1021.8 |
| 20260831131803 | 75 | 228 | 0.0 | 0.0 | 0.00 | 0.00 | 0.00 | 95 | 1021.8 |
| 20260831131259 | 74 | 236 | 0.0 | 0.0 | 0.00 | 0.00 | 0.00 | 97 | 1021.9 |
| 20260831130753 | 73 | 225 | 0.0 | 0.0 | 0.00 | 0.00 | 0.00 | 99 | 1021.9 |
| 20260831130249 | 73 | 227 | 0.0 | 0.0 | 0.00 | 0.00 | 0.00 | 99 | 1021.7 |
| 20260831125748 | 72 | 225 | 0.0 | 0.0 | 0.00 | 0.00 | 0.00 | 99 | 1021.9 |
| 20260831125244 | 72 | 224 | 0.0 | 0.0 | 0.00 | 0.00 | 0.00 | 99 | 1021.6 |
| 20260831124738 | 72 | 222 | 0.0 | 0.0 | 0.00 | 0.00 | 0.00 | 99 | 1021.5 |
| 20260831124235 | 72 | 225 | 0.0 | 0.0 | 0.00 | 0.00 | 0.00 | 99 | 1021.6 |
| 20260831123734 | 71 | 225 | 0.0 | 0.0 | 0.00 | 0.00 | 0.00 | 99 | 1021.5 |
| 20260831123233 | 71 | 226 | 0.0 | 0.0 | 0.00 | 0.00 | 0.00 | 99 | 1021.5 |
| 20260831122727 | 71 | 223 | 0.0 | 0.0 | 0.00 | 0.00 | 0.00 | 99 | 1021.5 |
| 20260831122224 | 71 | 223 | 0.0 | 0.0 | 0.00 | 0.00 | 0.00 | 99 | 1021.3 |
| 20260831121723 | 71 | 225 | 0.0 | 0.0 | 0.00 | 0.00 | 0.00 | 99 | 1021.4 |
| 20260831121220 | 71 | 224 | 0.0 | 0.0 | 0.00 | 0.00 | 0.00 | 99 | 1021.3 |
| 20260831120715 | 70 | 223 | 0.0 | 0.0 | 0.00 | 0.00 | 0.00 | 99 | 1021.4 |
| 20260831120209 | 70 | 223 | 0.0 | 0.0 | 0.00 | 0.00 | 0.00 | 99 | 1021.1 |
| 20260831115705 | 70 | 223 | 0.0 | 0.0 | 0.00 | 0.00 | 0.00 | 99 | 1021.1 |
| 20260831115201 | 70 | 224 | 0.0 | 0.0 | 0.00 | 0.00 | 0.00 | 99 | 1021.2 |
| 20260831114700 | 70 | 225 | 0.0 | 0.0 | 0.00 | 0.00 | 0.00 | 99 | 1021.1 |
| 20260831114159 | 70 | 226 | 0.0 | 0.0 | 0.00 | 0.00 | 0.00 | 99 | 1021.2 |
| 20260831113654 | 70 | 225 | 0.0 | 0.0 | 0.00 | 0.00 | 0.00 | 99 | 1021.1 |
| 20260831113149 | 70 | 221 | 0.0 | 0.0 | 0.00 | 0.00 | 0.00 | 99 | 1021.1 |
| 20260831112648 | 70 | 223 | 0.0 | 0.0 | 0.00 | 0.00 | 0.00 | 99 | 1020.9 |
| 20260831112144 | 70 | 225 | 0.0 | 0.0 | 0.00 | 0.00 | 0.00 | 99 | 1021.1 |
| 20260831111640 | 70 | 222 | 0.0 | 0.0 | 0.00 | 0.00 | 0.00 | 99 | 1021.0 |
| 20260831111136 | 70 | 222 | 0.0 | 0.0 | 0.00 | 0.00 | 0.00 | 99 | 1021.0 |
| 20260831110631 | 70 | 219 | 0.0 | 0.0 | 0.00 | 0.00 | 0.00 | 99 | 1020.7 |
| 20260831110126 | 70 | 223 | 0.0 | 0.0 | 0.00 | 0.00 | 0.00 | 99 | 1020.5 |
| 20260831105625 | 70 | 221 | 0.0 | 1.0 | 0.00 | 0.00 | 0.00 | 99 | 1020.6 |
| 20260831105120 | 70 | 224 | 0.0 | 0.0 | 0.00 | 0.00 | 0.00 | 99 | 1020.9 |
| 20260831104615 | 70 | 225 | 0.0 | 0.0 | 0.00 | 0.00 | 0.00 | 99 | 1020.6 |
| 20260831104112 | 70 | 224 | 0.0 | 0.0 | 0.00 | 0.00 | 0.00 | 99 | 1020.5 |
| 20260831103606 | 70 | 225 | 0.0 | 0.0 | 0.00 | 0.00 | 0.00 | 99 | 1020.4 |
| 20260831103057 | 70 | 224 | 0.0 | 0.0 | 0.00 | 0.00 | 0.00 | 99 | 1020.4 |
| 20260831102556 | 70 | 224 | 0.0 | 0.0 | 0.00 | 0.00 | 0.00 | 99 | 1020.4 |
| 20260831102051 | 70 | 224 | 0.0 | 0.0 | 0.00 | 0.00 | 0.00 | 99 | 1020.5 |
| 20260831101546 | 70 | 226 | 0.0 | 0.0 | 0.00 | 0.00 | 0.00 | 99 | 1020.4 |
| 20260831101043 | 70 | 222 | 0.0 | 0.0 | 0.00 | 0.00 | 0.00 | 99 | 1020.4 |
| 20260831100538 | 70 | 221 | 0.0 | 0.0 | 0.00 | 0.00 | 0.00 | 99 | 1020.4 |
| 20260831100034 | 70 | 224 | 0.0 | 0.0 | 0.00 | 0.00 | 0.00 | 99 | 1020.1 |
| 20260831095532 | 70 | 225 | 0.0 | 0.0 | 0.00 | 0.00 | 0.00 | 99 | 1020.2 |
| 20260831095032 | 70 | 224 | 0.0 | 0.0 | 0.00 | 0.00 | 0.00 | 99 | 1020.0 |
| 20260831094529 | 70 | 224 | 0.0 | 0.0 | 0.00 | 0.00 | 0.00 | 99 | 1020.1 |
| 20260831094024 | 70 | 224 | 0.0 | 0.0 | 0.00 | 0.00 | 0.00 | 99 | 1019.9 |
| 20260831093519 | 70 | 224 | 0.0 | 0.0 | 0.00 | 0.00 | 0.00 | 99 | 1020.0 |
| 20260831093016 | 70 | 224 | 0.0 | 0.0 | 0.00 | 0.00 | 0.00 | 99 | 1020.2 |
| 20260831092511 | 70 | 224 | 0.0 | 0.0 | 0.00 | 0.00 | 0.00 | 99 | 1019.8 |
| 20260831092007 | 71 | 224 | 0.0 | 0.0 | 0.00 | 0.00 | 0.00 | 99 | 1019.9 |
| 20260831091501 | 71 | 224 | 0.0 | 0.0 | 0.00 | 0.00 | 0.00 | 99 | 1019.7 |
| 20260831090956 | 71 | 224 | 0.0 | 0.0 | 0.00 | 0.00 | 0.00 | 99 | 1019.8 |
| 20260831090452 | 71 | 224 | 0.0 | 0.0 | 0.00 | 0.00 | 0.00 | 99 | 1019.8 |
| 20260831085948 | 71 | 224 | 0.0 | 0.0 | 0.00 | 0.00 | 0.00 | 99 | 1019.9 |
| 20260831085443 | 71 | 224 | 0.0 | 0.0 | 0.00 | 0.00 | 0.00 | 99 | 1020.0 |
| 20260831084942 | 71 | 225 | 0.0 | 0.0 | 0.00 | 0.00 | 0.00 | 99 | 1019.7 |
| 20260831084439 | 71 | 225 | 0.0 | 0.0 | 0.00 | 0.00 | 0.00 | 99 | 1019.9 |
| 20260831083936 | 71 | 220 | 0.0 | 0.0 | 0.00 | 0.00 | 0.00 | 99 | 1020.0 |
| 20260831083430 | 71 | 220 | 0.0 | 0.0 | 0.00 | 0.00 | 0.00 | 99 | 1019.4 |
| 20260831082929 | 71 | 221 | 0.0 | 0.0 | 0.00 | 0.00 | 0.00 | 99 | 1019.7 |
| 20260831082423 | 71 | 221 | 0.0 | 0.0 | 0.00 | 0.00 | 0.00 | 99 | 1019.7 |
| 20260831081919 | 71 | 221 | 0.0 | 0.0 | 0.00 | 0.00 | 0.00 | 99 | 1019.5 |
| 20260831081415 | 71 | 221 | 0.0 | 0.0 | 0.00 | 0.00 | 0.00 | 99 | 1019.8 |
| 20260831080910 | 71 | 221 | 0.0 | 0.0 | 0.00 | 0.00 | 0.00 | 99 | 1019.9 |
| 20260831080406 | 71 | 221 | 0.0 | 0.0 | 0.00 | 0.00 | 0.00 | 99 | 1019.8 |
| 20260831075901 | 71 | 221 | 0.0 | 0.0 | 0.00 | 0.00 | 0.00 | 99 | 1019.6 |
| 20260831075356 | 71 | 220 | 0.0 | 0.0 | 0.00 | 0.00 | 0.00 | 99 | 1019.8 |
| 20260831074851 | 71 | 225 | 0.0 | 0.0 | 0.00 | 0.00 | 0.00 | 99 | 1019.6 |
| 20260831074350 | 71 | 225 | 0.0 | 0.0 | 0.00 | 0.00 | 0.00 | 99 | 1019.7 |
| 20260831073846 | 71 | 224 | 0.0 | 0.0 | 0.00 | 0.00 | 0.00 | 99 | 1019.6 |
| 20260831073344 | 71 | 220 | 0.0 | 0.0 | 0.00 | 0.00 | 0.00 | 99 | 1019.8 |
| 20260831072840 | 71 | 224 | 0.0 | 0.0 | 0.00 | 0.00 | 0.00 | 99 | 1019.7 |
| 20260831072335 | 72 | 224 | 0.0 | 0.0 | 0.00 | 0.00 | 0.00 | 99 | 1019.8 |
| 20260831071832 | 72 | 223 | 0.0 | 0.0 | 0.00 | 0.00 | 0.00 | 99 | 1019.6 |
| 20260831071330 | 72 | 222 | 0.0 | 0.0 | 0.00 | 0.00 | 0.00 | 99 | 1019.8 |
| 20260831070826 | 72 | 223 | 0.0 | 0.0 | 0.00 | 0.00 | 0.00 | 99 | 1019.8 |
| 20260831070324 | 72 | 224 | 0.0 | 0.0 | 0.00 | 0.00 | 0.00 | 99 | 1019.9 |
| 20260831065824 | 72 | 221 | 0.0 | 0.0 | 0.00 | 0.00 | 0.00 | 99 | 1019.9 |
| 20260831065322 | 72 | 222 | 0.0 | 0.0 | 0.00 | 0.00 | 0.00 | 99 | 1019.8 |
| 20260831064817 | 72 | 221 | 0.0 | 0.0 | 0.00 | 0.00 | 0.00 | 98 | 1019.7 |
| 20260831064312 | 72 | 224 | 0.0 | 0.0 | 0.00 | 0.00 | 0.00 | 98 | 1019.7 |
| 20260831063809 | 72 | 221 | 0.0 | 0.0 | 0.00 | 0.00 | 0.00 | 98 | 1019.9 |
| 20260831063303 | 72 | 221 | 0.0 | 0.0 | 0.00 | 0.00 | 0.00 | 98 | 1019.8 |
| 20260831062803 | 72 | 224 | 0.0 | 0.0 | 0.00 | 0.00 | 0.00 | 98 | 1020.0 |
| 20260831062258 | 72 | 224 | 0.0 | 0.0 | 0.00 | 0.00 | 0.00 | 98 | 1020.0 |
| 20260831061756 | 72 | 226 | 0.0 | 0.0 | 0.00 | 0.00 | 0.00 | 98 | 1019.9 |
| 20260831061251 | 72 | 224 | 0.0 | 0.0 | 0.00 | 0.00 | 0.00 | 98 | 1019.9 |
| 20260831060748 | 73 | 224 | 0.0 | 0.0 | 0.00 | 0.00 | 0.00 | 98 | 1019.8 |
| 20260831060247 | 73 | 223 | 0.0 | 0.0 | 0.00 | 0.00 | 0.00 | 98 | 1019.9 |
| 20260831055747 | 73 | 222 | 0.0 | 0.0 | 0.00 | 0.00 | 0.00 | 98 | 1019.8 |
| 20260831055242 | 73 | 222 | 0.0 | 0.0 | 0.00 | 0.00 | 0.00 | 97 | 1020.0 |
| 20260831054737 | 73 | 224 | 0.0 | 0.0 | 0.00 | 0.00 | 0.00 | 97 | 1020.0 |
| 20260831054232 | 73 | 224 | 0.0 | 0.0 | 0.00 | 0.00 | 0.00 | 97 | 1020.0 |
| 20260831053731 | 73 | 224 | 0.0 | 0.0 | 0.00 | 0.00 | 0.00 | 97 | 1020.0 |
| 20260831053230 | 73 | 224 | 0.0 | 0.0 | 0.00 | 0.00 | 0.00 | 97 | 1019.9 |
| 20260831052729 | 73 | 224 | 0.0 | 0.0 | 0.00 | 0.00 | 0.00 | 97 | 1020.0 |
| 20260831052223 | 73 | 224 | 0.0 | 0.0 | 0.00 | 0.00 | 0.00 | 97 | 1020.1 |
| 20260831051721 | 73 | 222 | 0.0 | 0.0 | 0.00 | 0.00 | 0.00 | 97 | 1019.9 |
| 20260831051220 | 73 | 227 | 0.0 | 0.0 | 0.00 | 0.00 | 0.00 | 97 | 1019.9 |
| 20260831050715 | 73 | 221 | 0.0 | 0.0 | 0.00 | 0.00 | 0.00 | 97 | 1020.0 |
| 20260831050214 | 73 | 225 | 0.0 | 0.0 | 0.00 | 0.00 | 0.00 | 96 | 1019.9 |
| 20260831045708 | 73 | 224 | 0.0 | 0.0 | 0.00 | 0.00 | 0.00 | 96 | 1019.9 |
| 20260831045203 | 73 | 224 | 0.0 | 0.0 | 0.00 | 0.00 | 0.00 | 96 | 1019.9 |
| 20260831044658 | 73 | 224 | 0.0 | 0.0 | 0.00 | 0.00 | 0.00 | 96 | 1019.8 |
| 20260831044153 | 73 | 224 | 0.0 | 0.0 | 0.00 | 0.00 | 0.00 | 96 | 1020.0 |
| 20260831043649 | 73 | 224 | 0.0 | 0.0 | 0.00 | 0.00 | 0.00 | 96 | 1020.0 |
| 20260831043144 | 73 | 224 | 0.0 | 0.0 | 0.00 | 0.00 | 0.00 | 96 | 1019.9 |
| 20260831042643 | 73 | 222 | 0.0 | 0.0 | 0.00 | 0.00 | 0.00 | 96 | 1019.8 |
| 20260831042138 | 73 | 223 | 0.0 | 0.0 | 0.00 | 0.00 | 0.00 | 95 | 1020.0 |
| 20260831041633 | 74 | 224 | 0.0 | 0.0 | 0.00 | 0.00 | 0.00 | 95 | 1019.9 |
| 20260831041132 | 74 | 223 | 0.0 | 0.0 | 0.00 | 0.00 | 0.00 | 95 | 1019.8 |
| 20260831040627 | 74 | 224 | 0.0 | 0.0 | 0.00 | 0.00 | 0.00 | 95 | 1020.0 |
| 20260831040121 | 74 | 224 | 0.0 | 0.0 | 0.00 | 0.00 | 0.00 | 95 | 1019.9 |
| 20260831035619 | 74 | 222 | 0.0 | 0.0 | 0.00 | 0.00 | 0.00 | 95 | 1020.0 |
| 20260831035114 | 74 | 222 | 0.0 | 0.0 | 0.00 | 0.00 | 0.00 | 95 | 1019.8 |
| 20260831034613 | 74 | 222 | 0.0 | 0.0 | 0.00 | 0.00 | 0.00 | 94 | 1019.9 |
| 20260831034109 | 74 | 222 | 0.0 | 0.0 | 0.00 | 0.00 | 0.00 | 94 | 1020.1 |
| 20260831033604 | 74 | 222 | 0.0 | 0.0 | 0.00 | 0.00 | 0.00 | 94 | 1020.1 |
| 20260831033059 | 74 | 222 | 0.0 | 0.0 | 0.00 | 0.00 | 0.00 | 94 | 1019.8 |
| 20260831032559 | 74 | 225 | 0.0 | 0.0 | 0.00 | 0.00 | 0.00 | 94 | 1020.0 |
| 20260831032054 | 74 | 225 | 0.0 | 0.0 | 0.00 | 0.00 | 0.00 | 94 | 1019.7 |
| 20260831031554 | 74 | 225 | 0.0 | 0.0 | 0.00 | 0.00 | 0.00 | 94 | 1020.0 |
| 20260831031053 | 75 | 225 | 0.0 | 0.0 | 0.00 | 0.00 | 0.00 | 94 | 1020.1 |
| 20260831030553 | 75 | 225 | 0.0 | 0.0 | 0.00 | 0.00 | 0.00 | 93 | 1019.8 |
| 20260831030052 | 75 | 225 | 0.0 | 0.0 | 0.00 | 0.00 | 0.00 | 93 | 1019.9 |
| 20260831025550 | 75 | 225 | 0.0 | 0.0 | 0.00 | 0.00 | 0.00 | 93 | 1019.9 |
| 20260831025046 | 75 | 225 | 0.0 | 0.0 | 0.00 | 0.00 | 0.00 | 93 | 1020.0 |
| 20260831024542 | 75 | 225 | 0.0 | 0.0 | 0.00 | 0.00 | 0.00 | 93 | 1020.0 |
| 20260831024040 | 75 | 225 | 0.0 | 0.0 | 0.00 | 0.00 | 0.00 | 93 | 1020.0 |
| 20260831023539 | 75 | 225 | 0.0 | 0.0 | 0.00 | 0.00 | 0.00 | 92 | 1019.8 |
| 20260831023033 | 75 | 225 | 0.0 | 0.0 | 0.00 | 0.00 | 0.00 | 91 | 1019.7 |
| 20260831022533 | 75 | 225 | 0.0 | 0.0 | 0.00 | 0.00 | 0.00 | 91 | 1019.9 |
| 20260831022028 | 75 | 225 | 0.0 | 0.0 | 0.00 | 0.00 | 0.00 | 90 | 1019.7 |
| 20260831021527 | 75 | 225 | 0.0 | 0.0 | 0.00 | 0.00 | 0.00 | 90 | 1019.7 |
| 20260831021023 | 76 | 225 | 0.0 | 0.0 | 0.00 | 0.00 | 0.00 | 90 | 1019.8 |
| 20260831020518 | 76 | 225 | 0.0 | 0.0 | 0.00 | 0.00 | 0.00 | 89 | 1019.7 |
| 20260831020013 | 76 | 225 | 0.0 | 0.0 | 0.00 | 0.00 | 0.00 | 88 | 1019.6 |
| 20260831015509 | 76 | 225 | 0.0 | 0.0 | 0.00 | 0.00 | 0.00 | 88 | 1019.5 |
| 20260831015004 | 76 | 225 | 0.0 | 0.0 | 0.00 | 0.00 | 0.00 | 88 | 1019.5 |
| 20260831014458 | 76 | 225 | 0.0 | 0.0 | 0.00 | 0.00 | 0.00 | 89 | 1019.4 |
| 20260831013954 | 77 | 225 | 0.0 | 0.0 | 0.00 | 0.00 | 0.00 | 89 | 1019.5 |
| 20260831013450 | 77 | 225 | 0.0 | 0.0 | 0.00 | 0.00 | 0.00 | 89 | 1019.2 |
| 20260831012949 | 77 | 225 | 0.0 | 0.0 | 0.00 | 0.00 | 0.00 | 89 | 1019.2 |
| 20260831012444 | 77 | 225 | 0.0 | 0.0 | 0.00 | 0.00 | 0.00 | 89 | 1019.1 |
| 20260831011938 | 77 | 225 | 0.0 | 0.0 | 0.00 | 0.00 | 0.00 | 88 | 1019.1 |
| 20260831011433 | 77 | 225 | 0.0 | 0.0 | 0.00 | 0.00 | 0.00 | 87 | 1019.0 |
| 20260831010929 | 77 | 225 | 0.0 | 0.0 | 0.00 | 0.00 | 0.00 | 87 | 1019.2 |
| 20260831010424 | 78 | 224 | 0.0 | 0.0 | 0.00 | 0.00 | 0.00 | 87 | 1019.2 |
| 20260831005919 | 78 | 224 | 0.0 | 0.0 | 0.00 | 0.00 | 0.00 | 87 | 1019.1 |
| 20260831005415 | 78 | 224 | 0.0 | 0.0 | 0.00 | 0.00 | 0.00 | 86 | 1018.8 |
| 20260831004909 | 78 | 224 | 0.0 | 0.0 | 0.00 | 0.00 | 0.00 | 85 | 1018.8 |
| 20260831004406 | 79 | 224 | 0.0 | 0.0 | 0.00 | 0.00 | 0.00 | 85 | 1018.8 |
| 20260831003901 | 79 | 224 | 0.0 | 0.0 | 0.00 | 0.00 | 0.00 | 84 | 1018.5 |
| 20260831003357 | 79 | 224 | 0.0 | 0.0 | 0.00 | 0.00 | 0.00 | 84 | 1018.7 |
| 20260831002856 | 80 | 224 | 0.0 | 0.0 | 0.00 | 0.00 | 0.00 | 83 | 1018.7 |
| 20260831002355 | 80 | 224 | 0.0 | 0.0 | 0.00 | 0.00 | 0.00 | 82 | 1018.6 |
| 20260831001851 | 80 | 225 | 0.0 | 0.0 | 0.00 | 0.00 | 0.00 | 81 | 1018.6 |
| 20260831001351 | 81 | 227 | 0.0 | 0.0 | 0.00 | 0.00 | 0.00 | 80 | 1018.5 |
| 20260831000849 | 81 | 227 | 0.0 | 0.0 | 0.00 | 0.00 | 0.00 | 79 | 1018.4 |
| 20260831000344 | 82 | 228 | 0.0 | 0.0 | 0.00 | 0.00 | 0.00 | 79 | 1018.4 |
| 20260830235842 | 82 | 224 | 0.0 | 0.0 | 0.00 | 0.00 | 0.00 | 79 | 1018.6 |
| 20260830235337 | 83 | 224 | 0.0 | 0.0 | 0.00 | 0.00 | 0.00 | 77 | 1018.4 |
| 20260830234833 | 83 | 224 | 0.0 | 0.0 | 0.00 | 0.00 | 0.00 | 76 | 1018.7 |
| 20260830234328 | 84 | 224 | 0.0 | 0.0 | 0.00 | 0.00 | 0.00 | 74 | 1018.4 |
| 20260830233824 | 85 | 224 | 0.0 | 0.0 | 0.00 | 0.00 | 0.00 | 72 | 1018.5 |
| 20260830233319 | 85 | 224 | 0.0 | 0.0 | 0.00 | 0.00 | 0.00 | 71 | 1018.5 |
| 20260830232815 | 86 | 224 | 0.0 | 0.0 | 0.00 | 0.00 | 0.00 | 69 | 1018.6 |
| 20260830232310 | 86 | 224 | 0.0 | 0.0 | 0.00 | 0.00 | 0.00 | 68 | 1018.4 |
| 20260830231807 | 86 | 224 | 0.0 | 0.0 | 0.00 | 0.00 | 0.00 | 67 | 1018.3 |
| 20260830231307 | 87 | 219 | 0.0 | 0.0 | 0.00 | 0.00 | 0.00 | 68 | 1018.4 |
| 20260830230801 | 87 | 220 | 0.0 | 0.0 | 0.00 | 0.00 | 0.00 | 67 | 1018.3 |
| 20260830230257 | 87 | 218 | 0.0 | 0.0 | 0.00 | 0.00 | 0.00 | 66 | 1018.5 |
| 20260830225756 | 88 | 220 | 0.0 | 0.0 | 0.00 | 0.00 | 0.00 | 66 | 1018.5 |